Flag Weather past 2 weeks in Rochester, New York, U.S.A.

Now
45 °F

Overcast.


Feels Like: 39 °F
Forecast: 44 / 51 °F
Wind: 14 mph from Southwest

Location: Greater Rochester International Airport

Current Time: Nov 22, 2014 at 9:43:41 PM

Latest Report: Nov 22, 2014 at 8:54 PM


Visibility: 10 mi

Pressure: 30.00 "Hg

Humidity: 82%

Dew point: 40 °F

Location of RochesterLocation

Historic Weather in Rochester — Graph

°F

Rochester temperature yesterday

Maximum temperature yesterday: 29 °F (at 12:54 PM)
Minimum temperature yesterday: 19 °F (at 2:54 AM)
Average temperature yesterday: 24 °F

Past Weeks' High & Low Weather Summary

 TemperatureHumidityPressure
High69 °F (Nov 11, 2:54 PM)97% (Nov 17, 12:54 PM)30.47 "Hg (Nov 17, 12:54 PM)
Low15 °F (Nov 19, 3:54 AM)31% (Nov 11, 2:54 PM)29.52 "Hg (Nov 17, 2:54 PM)
Average35 °F66%30.01 "Hg
* Reported Nov 7 7:54 PM — Nov 22 7:54 PM, Rochester, Weather by CustomWeather, © 2014

Note: Actual official high and low records may vary slightly from our data, if they occured in-between our weather recording intervals... More about our weather records

Advertising

Rochester weather history for previous 24 hours

 ConditionsComfort  
Time TempWeatherWind HumidityBarometerVisibility
7:54 PM
Nov 22
44 °FOvercast.16 mph82%30.00 "Hg10 mi
6:54 PM42 °FOvercast.17 mph89%29.99 "Hg10 mi
5:54 PM41 °FOvercast.17 mph89%30.00 "Hg10 mi
4:54 PM41 °FLight rain. Overcast.16 mph82%30.01 "Hg10 mi
3:54 PM40 °FOvercast.16 mph80%30.01 "Hg10 mi
2:54 PM40 °FLight rain. Overcast.14 mph77%30.01 "Hg10 mi
1:54 PM40 °FOvercast.20 mph60%30.02 "Hg10 mi
12:54 PM38 °FLight rain. Mostly cloudy.15 mph55%30.06 "Hg10 mi
11:54 AM37 °FLight rain. Overcast.13 mph41%30.09 "Hg10 mi
10:54 AM35 °FMostly cloudy.16 mph35%30.14 "Hg10 mi
9:54 AM32 °FBroken clouds.16 mph38%30.19 "Hg10 mi
8:54 AM29 °FPartly sunny.14 mph43%30.23 "Hg10 mi
7:54 AM27 °FPartly sunny.15 mph49%30.25 "Hg10 mi
6:54 AM26 °FPassing clouds.13 mph52%30.27 "Hg10 mi
5:54 AM25 °FPassing clouds.15 mph55%30.29 "Hg10 mi
4:54 AM24 °FClear.12 mph57%30.33 "Hg10 mi
3:54 AM24 °FPassing clouds.10 mph60%30.34 "Hg10 mi
2:54 AM23 °FPassing clouds.13 mph60%30.38 "Hg10 mi
1:54 AM24 °FPassing clouds.10 mph60%30.39 "Hg10 mi
12:54 AM24 °FPassing clouds.14 mph62%30.40 "Hg10 mi
11:54 PM
Nov 21
25 °FOvercast.12 mph63%30.41 "Hg10 mi
10:54 PM25 °FOvercast.6 mph69%30.43 "Hg10 mi
9:54 PM25 °FOvercast.7 mph72%30.45 "Hg10 mi
Weather by CustomWeather, © 2014

See weather overviewHow to use our weather pages